This is the latest recevied weather packets stored in our database for station/object K2ATL. If no packets are shown the sender has not sent any weather packets the latest 1 day(s).
| Time | Temp. | Humidity | Pressure | Rain* | Wind** | Luminosity | Snow |
|---|---|---|---|---|---|---|---|
| 1836274826 | 21.67° C | 65% | 1104.8 hPa | 0 mm | 0.45 m/s, 63° | 0 W/m² | - |
| 1836274523 | 21.67° C | 65% | 1104.7 hPa | 0 mm | 0.45 m/s, 66° | 0 W/m² | - |
| 1836274377 | 21.67° C | 65% | 1104.6 hPa | 0 mm | 0.89 m/s, 74° | 0 W/m² | - |
| 1836274222 | 21.67° C | 65% | 1104.8 hPa | 0 mm | 0.89 m/s, 60° | 0 W/m² | - |
| 1836273916 | 21.67° C | 65% | 1104.8 hPa | 0 mm | 0.45 m/s, 63° | 0 W/m² | - |
| 1778042750 | 18.89° C | 55% | 1098.7 hPa | 0 mm | 0.89 m/s, 164° | 0 W/m² | - |
| 1778042446 | 18.89° C | 54% | 1099 hPa | 0 mm | 0.45 m/s, 129° | 0 W/m² | - |
| 1778042143 | 18.89° C | 54% | 1099.3 hPa | 0 mm | 2.24 m/s, 100° | 0 W/m² | - |
| 1778041842 | 18.89° C | 54% | 1099.3 hPa | 0 mm | 2.68 m/s, 131° | 0 W/m² | - |
| 1778041541 | 18.89° C | 55% | 1099.4 hPa | 0 mm | 1.34 m/s, 10° | 0 W/m² | - |
| 1778041238 | 18.89° C | 54% | 1099.3 hPa | 0 mm | 1.79 m/s, 144° | 0 W/m² | - |
| 1778040937 | 18.89° C | 55% | 1099 hPa | 0 mm | 0.89 m/s, 134° | 0 W/m² | - |
| 1778040633 | 18.89° C | 55% | 1099.4 hPa | 0 mm | 0.89 m/s, 131° | 0 W/m² | - |
| 1778040331 | 18.89° C | 55% | 1099.1 hPa | 0 mm | 0 m/s | 0 W/m² | - |
| 1778040026 | 18.89° C | 55% | 1098.8 hPa | 0 mm | 1.34 m/s, 23° | 0 W/m² | - |
| 1778039724 | 18.89° C | 54% | 1098.6 hPa | 0 mm | 1.34 m/s, 91° | 0 W/m² | - |
| 1778039420 | 18.89° C | 53% | 1098.9 hPa | 0 mm | 1.34 m/s, 127° | 0 W/m² | - |
| 1778039118 | 18.89° C | 53% | 1099.1 hPa | 0 mm | 0.89 m/s, 131° | 0 W/m² | - |
| 1778038815 | 18.89° C | 52% | 1099.2 hPa | 0 mm | 1.34 m/s, 145° | 0 W/m² | - |
| 1778038512 | 18.89° C | 52% | 1099.3 hPa | 0 mm | 1.34 m/s, 141° | 0 W/m² | - |
| 1778038209 | 19.44° C | 52% | 1099.3 hPa | 0 mm | 1.34 m/s, 131° | 0 W/m² | - |
| 1778037906 | 18.89° C | 52% | 1099.2 hPa | 0 mm | 1.34 m/s, 130° | 0 W/m² | - |
| 1778037602 | 19.44° C | 52% | 1099.6 hPa | 0 mm | 1.79 m/s, 162° | 0 W/m² | - |
| 1778037301 | 18.89° C | 52% | 1099.3 hPa | 0 mm | 1.79 m/s, 130° | 0 W/m² | - |
| 1778036997 | 18.89° C | 52% | 1099.6 hPa | 0 mm | 0.45 m/s, 157° | 0 W/m² | - |
* Rain latest hour (hover to see other rain measurements)
** Current wind speed in m/s (hover to see current wind gust speed)